{"data":{"norad_id":7646,"intl_designator":"1975-010A","name":"STARLETTE","alt_names":[],"object_type":"PAYLOAD","status":"ACTIVE","operator":null,"country":"FR","launch_date":"1975-02-06","launch_site_code":"FRGUI","launch_vehicle":null,"mission":null,"orbit_class":"UNKNOWN","rcs_meters":0.1687,"size_class":null,"mass_kg":null,"dimensions":null,"purposes":["science"],"wikipedia_slug":null,"has_3d_model":false,"image_url":null,"decayed_at":null,"tle_current":{"epoch":"2026-09-20T00:16:17.312736Z","epoch_age_seconds":53351,"freshness":"FRESH","line1":"1 07646U 75010A   26263.01131149 -.00000144  00000+0  61063-7 0  9997","line2":"2 07646  49.8227  90.3072 0205607  16.3067 344.4315 13.82351658607651","mean_motion":13.82351658,"eccentricity":0.0205607,"inclination_deg":49.8227,"raan_deg":90.3072,"arg_perigee_deg":16.3067,"mean_anomaly_deg":344.4315,"bstar":6.1063e-8,"rev_number":60765,"period_min":104.1703094626,"perigee_km":804.77163350066,"apogee_km":1106.3434196048,"semimajor_km":7333.6945265528,"source":"CELESTRAK","updated_at":"2026-09-20T09:00:47.279645Z"}}}